Location: Nashville
(36.1660°N, 86.7840°W)
Time: 07:59:43
(UTC-05:00)

AO-109 - Pass Details

Date: 28 May 2022
Orbit: 477 x 502 km, 60.7° (Epoch: 27 June)

Event Time Altitude Azimuth Distance (km) Brightness Sun altitude
Rises 22:35:06 0° 338° (NNW) 2,598 ? -24.6°
Reaches altitude 10° 22:37:42 10° 355° (N) 1,713 ? -24.9°
Enters shadow 22:40:22 20° 39° (NE) 1,207 ? -25.2°
